User: anonymous   Login
Location: Fort Wayne
(41.1310°N, 85.1290°W)
Time: 18:59:33
(UTC-05:00)
Language:

OAO 2 Rocket - Orbit

View from above orbital plane
View from above orbital plane
View from above satellite
View from above satellite

Ground track
Ground track

The orbit data is extracted from the following two-line orbital elements,

1 03598U 68110B   16343.21238861  .00000063  00000-0  19274-4 0  9995
2 03598  34.9947 335.5911 0049039 118.9701 241.5920 14.54273396538656
Epoch (UTC): 08 December 2016 05:05:50
Eccentricity: 0.0049039
inclination: 34.9947°
perigee height: 677 km
apogee height: 746 km
right ascension of ascending node: 335.5911°
argument of perigee: 118.9701°
revolutions per day: 14.54273396
mean anomaly at epoch: 241.5920°
orbit number at epoch: 53865

The dashed part of the orbit path shows where the satellite is in the earth's shadow,  

DLR